[[{"header":{"parameterUnit":"m.s-1","parameterCategory":1,"la1":30.2992,"la2":30.254,"lo1":-89.0895,"lo2":-89.0443,"dy":0.0025,"dx":0.0025,"nx":19,"ny":19,"refTime":"2026-03-18T03:00:00:Z","depth":0,"parameterNumber":2,"parameterNumberName":"U-component_of_WINDS"},"data":[0,0,0,0.0875,0.0874,0.0845,0.0845,0.0802,0.0802,0,0,0,0,0,0,0,0,0,0,0,0.0881,0.0881,0.0875,0.0874,0.0845,0.0845,0.0802,0.0802,0,0,0,0,0,0,0,0,0,0,0,0.0882,0.0881,0.0881,0.0874,0.0845,0.0845,0.0802,0.0826,0,0,0,0,0,0,0,0,0,0,0.0855,0.086,0.0881,0.0881,0.0874,0.0845,0.0845,0.0827,0.0824,0.0813,0,0.0804,0,0.0802,0.0798,0.0798,0,0,0,0.0875,0.0862,0.0856,0.0881,0.0873,0.0845,0.0858,0.0826,0.0822,0.0809,0.0803,0.0802,0.0801,0.0798,0.0798,0.0732,0.0731,0,0,0.0877,0.0875,0.0858,0.0854,0.086,0.0859,0.0858,0.0824,0.0817,0.0803,0.0801,0.0801,0.0798,0.0797,0.0732,0.0732,0,0,0,0.0881,0.0876,0.0871,0.0855,0.0851,0.0859,0.0856,0.0818,0.0817,0.0801,0.08,0.0798,0.0797,0.0732,0.0732,0.0711,0,0,0,0.0882,0.0878,0.0872,0.087,0.0851,0.0834,0.0851,0.0819,0.0815,0.08,0.0798,0.0797,0.0733,0.0732,0.0712,0.0701,0,0,0,0.0884,0.0879,0.0874,0.087,0.0858,0.0835,0.0832,0.0818,0.0815,0.0798,0.0796,0.0733,0.0732,0.0714,0.0703,0.0681,0,0,0,0.0886,0.0857,0.0874,0.0841,0.0858,0.0823,0.0832,0.0806,0.079,0.0797,0.0733,0.0732,0.0714,0.0704,0.0682,0.0661,0.0653,0,0,0.0848,0.0852,0.0833,0.0847,0.0809,0.0828,0.0786,0.0772,0.0772,0.0745,0.0743,0.0712,0.0703,0.0681,0.0609,0.0602,0,0,0,0.082,0.0806,0.0796,0.0781,0.077,0.0759,0.0752,0.0747,0.0723,0.0758,0.0699,0.0694,0.0681,0.0671,0.0665,0.0653,0.0728,0.0728,0.0728,0.0763,0.0764,0.0732,0.0729,0.0714,0.0707,0.0693,0.0685,0.0691,0.0677,0.0668,0.0624,0.0612,0.0608,0.0595,0.0659,0.0659,0.0659,0.0659,0.0706,0.0685,0.0694,0.0665,0.0666,0.0642,0.0633,0.0638,0.0613,0.0632,0.062,0.0638,0.06,0.0589,0.0657,0.0657,0.0658,0.0658,0.0658,0.0667,0.0657,0.0651,0.0627,0.0609,0.0607,0.0583,0.0586,0.0587,0.0577,0.0566,0.0566,0.0564,0.0572,0.0572,0.0571,0.0571,0.0571,0.0571,0.0627,0.0622,0.0602,0.0587,0.0576,0.0562,0.0554,0.0543,0.053,0.0534,0.0534,0.0539,0.0598,0.0611,0.0569,0.0569,0.0569,0.057,0.057,0.0565,0.0579,0.0548,0.0537,0.0519,0.0499,0.0502,0.0479,0.047,0.0458,0.0466,0.051,0.0514,0.0518,0.0529,0.0468,0.0468,0.0468,0.0468,0.053,0.0533,0.05,0.0482,0.0465,0.0465,0.0427,0.0419,0.0414,0.0408,0.0417,0.0432,0.0437,0.0438,0.0444,0.0454,0.0376,0.0375,0.0375,0.049,0.0491,0.0459,0.0455,0.044,0.0427,0.0391,0.0368,0.0365,0.0372,0.0402,0.0406,0.0431,0.0439,0.0445,0.0455,0.0473,0,0]},{"header":{"parameterUnit":"m.s-1","parameterCategory":1,"la1":30.2992,"la2":30.254,"lo1":-89.0895,"lo2":-89.0443,"dy":0.0025,"dx":0.0025,"nx":19,"ny":19,"refTime":"2026-03-18T03:00:00:Z","depth":0,"parameterNumber":3,"parameterNumberName":"V-component_of_WINDS"},"data":[0,0,0,2.0506,2.0507,2.0557,2.0557,2.0621,2.0622,0,0,0,0,0,0,0,0,0,0,0,2.0495,2.0495,2.0506,2.0508,2.0556,2.0557,2.0621,2.0622,0,0,0,0,0,0,0,0,0,0,0,2.0494,2.0495,2.0496,2.0508,2.0556,2.0557,2.0621,2.0583,0,0,0,0,0,0,0,0,0,0,2.0535,2.0527,2.0495,2.0496,2.0508,2.0556,2.0557,2.0581,2.0585,2.06,0,2.0616,0,2.062,2.0626,2.0627,0,0,0,2.0505,2.0524,2.0534,2.0496,2.0509,2.0556,2.0534,2.0583,2.0588,2.0606,2.0616,2.0619,2.0621,2.0627,2.0627,2.0721,2.0721,0,0,2.0503,2.0505,2.0531,2.0538,2.0532,2.0532,2.0535,2.0586,2.0598,2.0617,2.062,2.0622,2.0627,2.0628,2.072,2.0721,0,0,0,2.0496,2.0503,2.0512,2.0535,2.0544,2.0534,2.0537,2.0595,2.0598,2.0621,2.0623,2.0628,2.0629,2.072,2.0721,2.0748,0,0,0,2.0495,2.0499,2.0511,2.0513,2.0543,2.0571,2.0545,2.0595,2.06,2.0622,2.0628,2.0629,2.0719,2.072,2.0746,2.076,0,0,0,2.049,2.0499,2.0507,2.0513,2.0534,2.057,2.0575,2.0596,2.0602,2.0627,2.0629,2.0719,2.072,2.0744,2.0757,2.0783,0,0,0,2.0487,2.0533,2.0508,2.0559,2.0534,2.0587,2.0575,2.0615,2.064,2.0628,2.0719,2.072,2.0743,2.0755,2.0781,2.0805,2.0815,0,0,2.0546,2.054,2.057,2.0549,2.0606,2.0579,2.064,2.0662,2.0662,2.0701,2.0703,2.0746,2.0757,2.0783,2.0875,2.0883,0,0,0,2.0589,2.061,2.0625,2.0648,2.0665,2.0679,2.0691,2.0698,2.073,2.0683,2.0764,2.077,2.0785,2.0796,2.0803,2.0814,2.0726,2.0726,2.0726,2.0676,2.0672,2.072,2.0722,2.0745,2.0755,2.0772,2.0783,2.0775,2.0794,2.0805,2.0861,2.0874,2.0879,2.0891,2.0818,2.0819,2.0819,2.0819,2.076,2.0788,2.0774,2.0815,2.081,2.0845,2.0854,2.0847,2.0877,2.0854,2.0867,2.084,2.0889,2.0899,2.0821,2.082,2.082,2.082,2.082,2.0815,2.0828,2.0835,2.0866,2.089,2.089,2.0918,2.0914,2.091,2.0923,2.0932,2.0932,2.0929,2.0928,2.0928,2.0928,2.0929,2.0929,2.0929,2.0869,2.0876,2.09,2.0919,2.0931,2.0947,2.0955,2.0967,2.0979,2.0973,2.0973,2.0961,2.0895,2.0877,2.0932,2.0931,2.0931,2.0931,2.093,2.0952,2.0932,2.097,2.0982,2.1002,2.1024,2.1017,2.1041,2.105,2.1063,2.1048,2.1,2.0994,2.0988,2.0973,2.105,2.105,2.105,2.105,2.0997,2.0993,2.1029,2.1048,2.1066,2.1063,2.1103,2.1108,2.1111,2.1116,2.1104,2.1084,2.1079,2.1076,2.1068,2.1054,2.115,2.115,2.115,2.1047,2.1044,2.108,2.1081,2.1095,2.1107,2.1143,2.1164,2.1163,2.1154,2.1118,2.1114,2.1083,2.1073,2.1062,2.1051,2.1025,0,0]}]]